Regional Weather Roundup
Issued by NWS Upton, NY

Current Version | Previous Version | Text Only | Print | Product List | Glossary Off
Versions: 1 2 3 4 5 6 7 8 9 10 11 12 13 14 15 16 17 18 19 20 21 22 23 24 25 26 27
000 ASUS41 KOKX 171508 RWROKX REGIONAL WEATHER ROUNDUP NATIONAL WEATHER SERVICE NEW YORK NY 1000 AM EST TUE JAN 17 2017 NOTE: "FAIR" INDICATES FEW OR NO CLOUDS BELOW 12,000 FEET WITH NO SIGNIFICANT WEATHER AND/OR OBSTRUCTIONS TO VISIBILITY. NYZ071-072-176-178-NJZ106-104-171600- NEW YORK CITY METRO AREA CITY SKY/WX TMP DP RH WIND PRES REMARKS Central Park LGT RAIN 40 33 76 NW3 30.25S Wall St Helipt CLOUDY 39 33 79 SW5 30.25R Bronx Bot Gard NOT AVBL LaGuardia APRT LGT RAIN 43 30 60 VRB5 30.23S Kennedy INTL CLOUDY 41 31 67 CALM 30.24S Breezy Point N/A 39 N/A N/A S2 N/A Newark/Liberty LGT RAIN 39 32 76 S5 30.23S Teterboro LGT RAIN 41 30 65 CALM 30.23S $$ NYZ177-179-078>081-171600- LONG ISLAND NEW YORK CITY SKY/WX TMP DP RH WIND PRES REMARKS Jones Beach N/A 37 N/A N/A W2 N/A Matinecock PT NOT AVBL Farmingdale CLOUDY 41 29 62 CALM 30.24R MacArthur/ISP CLOUDY 41 30 65 CALM 30.22F Shirley CLOUDY 41 29 62 CALM 30.24R Westhampton CLOUDY 42 28 57 CALM 30.26R Southampton NOT AVBL Bridgehampton NOT AVBL East Hampton PTSUNNY 41 29 61 N3 30.23S Montauk N/A 41 32 70 N5 30.24F $$ NYZ052-065-067-171600- HUDSON VALLEY CITY SKY/WX TMP DP RH WIND PRES REMARKS White Plains LGT RAIN 37 28 70 CALM 30.21R Newburgh CLOUDY 37 28 70 CALM 30.22S Montgomery LGT RAIN 37 28 70 CALM 30.20S Poughkeepsie CLOUDY 34 28 79 CALM 30.22R Albany PTSUNNY 26 21 81 N3 30.24R $$ NJZ001-105-106-008-010-013-015-019>022-104-171600- NEW JERSEY CITY SKY/WX TMP DP RH WIND PRES REMARKS Newark/Liberty LGT RAIN 39 32 76 S5 30.23S Teterboro LGT RAIN 41 30 65 CALM 30.23S Caldwell LGT RAIN 38 31 76 CALM 30.23S Somerville CLOUDY 37 33 85 CALM 30.21S FOG Linden RAIN 38 31 77 CALM 30.24S Sussex LGT RAIN 35 31 85 CALM 30.20S FOG Andover N/A 34 30 85 CALM 30.21S Trenton CLOUDY 41 29 62 CALM 30.21F Millville CLOUDY 40 39 97 SE3 30.22F FOG Atlantic City CLOUDY 42 38 85 S3 30.23F Wrightstown CLOUDY 40 32 72 SE3 30.20S Toms River CLOUDY 41 33 73 CALM 30.23S Belmar CLOUDY 40 29 64 CALM 30.24F $$ PAZ047>061-062-071-171600- EASTERN PENNSYLVANIA CITY SKY/WX TMP DP RH WIND PRES REMARKS Philadelphia CLOUDY 41 35 79 CALM 30.23S Allentown MIX PCPN 37 31 78 E5 30.20F WCI 33 Scranton LGT RAIN 35 31 85 CALM 30.13F FOG $$ CTZ002-004>006-009-010-012-RIZ004-006-007-MAZ004-011-015-171600- SOUTHERN NEW ENGLAND IN CT CITY SKY/WX TMP DP RH WIND PRES REMARKS Bradley INTL CLOUDY 33 25 72 N5 30.25R WCI 29 Hartford CLOUDY 36 27 69 CALM 30.25R Danbury CLOUDY 37 28 70 CALM 30.22S Wtrbury/Oxford CLOUDY 36 27 69 CALM 30.21S Bridgeport CLOUDY 42 28 57 N3 30.24R Meriden CLOUDY 37 28 70 CALM 30.24R New Haven CLOUDY 38 28 67 CALM 30.24R Chester N/A 36 28 75 CALM 30.22S Groton CLOUDY 39 30 70 N3 30.24S Wilimantic CLOUDY 35 26 69 NE3 30.25S IN RI CITY SKY/WX TMP DP RH WIND PRES REMARKS Providence CLOUDY 37 23 56 N5 30.26R WCI 33 Block Island NOT AVBL Westerly CLOUDY 39 27 62 NE5 30.25R IN MA CITY SKY/WX TMP DP RH WIND PRES REMARKS Boston MOSUNNY 39 17 41 N7 30.26R WCI 34 Worcester MOSUNNY 34 14 43 E3 30.21S Westfield CLOUDY 31 22 69 N6 30.24R WCI 25 Provincetown SUNNY 43 29 57 NE8 30.25S Nantucket CLOUDY 40 29 64 NW12 30.24S WCI 33 $$ ANZ330-335-338-340-345-350-353-355-171600- COASTAL MARINE OBSERVATIONS STATION/POSITION TIME SKY/WX TEMP WIND PRES VSBY WAVE AIR SEA DIR/SP/G HT/PER (UTC) (F) (DEG/KT/KT) (MB) (MI) (FT/S) NY HARB ENTRANCE NOT AVBL 20 S FIRE ISLAND NOT AVBL GREAT SOUTH BAY NOT AVBL 23 SSW MONTAUK P NOT AVBL 15 E BARNEGAT LI 1430 44 N/A 1/ 8 HUDSON CANYON NOT AVBL KINGS POINT 1436 40 38 1023.5 EXECUTION ROCKS 1445 39 CALM / 2 N/A CENTRAL LI SOUND NOT AVBL EASTERN LI SOUND NOT AVBL ROBBINS REEF 1436 39 CALM / 1 1024.1 $$ >>>>>>>>>>>>>>>>>>>>>>>>>>>> KEY <<<<<<<<<<<<<<<<<<<<<<<<<<< > < > SKY/WX - Sky Condition/Present Weather < > TMP - Temperature in Fahrenheit < > DP - Dew Point in Fahrenheit < > RH - Relative Humidity in Percent < > WIND - Direction (from) and Speed in MPH < > PRES - Mean Sea Level Pressure (inches of Hg) < > WCI - Wind Chill Index < > VSB - VISIBILITY IN MILES < > HX - HEAT INDEX < > TC - TEMPERATURE IN CELSIUS < > VRB - VARIABLE WIND DIRECTION < > < >>>>>>>>>>>>>>>>>>>>>>>>>>>> KEY <<<<<<<<<<<<<<<<<<<<<<<<<<<

USA.gov is the U.S. government's official web portal to all federal, state and local government web resources and services.